Regional Weather Roundup
Issued by NWS Nashville, TN

Home | Current Version | Previous Version | Text Only | Print | Product List | Glossary On
Versions: 1 2 3 4 5 6 7 8 9 10 11 12 13 14 15 16 17 18 19 20 21 22 23 24 25 26 27
000
ASUS44 KOHX 291610
RWROHX
MIDDLE TENNESSEE HOURLY WEATHER ROUNDUP
NATIONAL WEATHER SERVICE NASHVILLE TN
1100 AM CDT WED MAR 29 2017

NOTE: "FAIR" INDICATES FEW OR NO CLOUDS BELOW 12,000 FEET WITH
NO SIGNIFICANT WEATHER AND/OR OBSTRUCTIONS TO VISIBILITY.

* THESE REPORTS ARE NOT UNDER NWS QUALITY CONTROL AND MAY NOT
  REPORT WEATHER SUCH AS PRECIPITATION AND FOG.


TNZ005>011-023>034-057-059-062>066-078-080-291700
...NORTHERN MIDDLE TENNESSEE...

CITY           SKY/WX    TMP DP  RH WIND       PRES   REMARKS
CLARKSVILLE    PTSUNNY   64  55  72 E3        30.09R
CROSSVILLE     SUNNY     64  52  64 SE7       30.09S
GALLATIN       SUNNY     66  55  68 SE6       30.09
NASHVILLE      PTSUNNY   70  53  54 S7        30.07R
PORTLAND       SUNNY     64  55  72 VRB5      30.07
SMYRNA         MOSUNNY   69  55  60 SE5       30.07S
SPARTA         SUNNY     66  55  68 E5        30.05S
SPRINGFIELD    SUNNY     66  55  68 VRB6      30.05
$$
TNZ056-058-060-061-075>077-079-093>097-291700
...SOUTHERN MIDDLE TENNESSEE...

CITY           SKY/WX    TMP DP  RH WIND       PRES   REMARKS
COLUMBIA       SUNNY     70  61  73 E6        30.04R
FAYETTEVILLE   SUNNY     72  55  56 SE7       30.06
MCMINNVILLE    SUNNY     70  55  60 VRB3      30.06S
$$


...KEY TO REMARKS...
VSB - VISIBILITY IN MILES
WCI - WIND CHILL INDEX
HX  - HEAT INDEX





USA.gov is the U.S. government's official web portal to all federal, state and local government web resources and services.